Topeka, KS

11:43 AM CDT on September 23, 2019 (GMT -0500)
Billard Municipal

Weather History for KTOP - July, 2019

Change the Weather History Date:

Monday, July 22, 2019

  Actual Average Record
Temperature  
Mean Temperature 73 °F 79 °F  
Max Temperature 83 °F 90 °F 106 °F (1901)
Min Temperature 63 °F 69 °F 51 °F (1970)
Degree Days  
Heating Degree Days 0 0  
Month to date heating degree days 0 0  
Since 1 June heating degree days 0 8  
Since 1 July heating degree days 0 0  
Cooling Degree Days 8 14  
Month to date cooling degree days 353 303  
Year to date cooling degree days 780 713  
Since 1 June cooling degree days 668 587  
Growing Degree Days 24 (Base 50)    
Moisture  
Dew Point 63 °F    
Average Humidity 58    
Maximum Humidity 97    
Minimum Humidity 18    
Precipitation  
Precipitation T in 0.12 in 2.67 in (1891)
Month to date precipitation 2.29 2.82  
Year to date precipitation 27.01 21.33  
Snow  
Snow 0.00 in 0.00 in T in (2017)
Month to date snowfall 0.0 0.0  
Year to date snowfall 18.5 11.3  
Since 1 July snowfall 0.0 0.0  
Snow Depth 0.00 in    
Sea Level Pressure  
Sea Level Pressure 30.12 in    
Wind  
Wind Speed 11 mph (North)    
Max Wind Speed 21 mph    
Max Gust Speed 29 mph    
Visibility 10 miles    
Events Rain    
T = Trace of Precipitation, MM = Missing Value Source: NWS Daily Summary

Daily Weather History Graph

Daily Weather History Graph

Search for Another Location

Airport or City:

Astronomy

Jul. 22, 2019 Rise Set
Actual Time 6:14 AM CDT 8:43 PM CDT
Civil Twilight 5:43 AM CDT 9:13 PM CDT
Nautical Twilight 5:05 AM CDT 9:51 PM CDT
Astronomical Twilight 4:23 AM CDT 10:33 PM CDT
Moon No Moon Rise 11:29 AM CDT (7/22)
Length of Visible Light 15h 30m
Length of Day
14h 28m
Waning Gibbous, 72% of the Moon is Illuminated
Jul 22
Waning Gibbous
Jul 24
Last Quarter
Jul 31
New
Aug 7
First Quarter
Aug 15
Full

Hourly Weather History & Observations

Time (CDT) Temp. Heat Index Dew Point Humidity Pressure Visibility Wind Dir Wind Speed Gust Speed Precip Events Conditions
12:22 AM 72.0 °F - 70.0 °F 93% 30.06 in 10.0 mi NNE 8.1 mph - N/A   Overcast
12:32 AM 72.0 °F - 70.0 °F 93% 30.07 in 10.0 mi North 8.1 mph - N/A   Overcast
12:45 AM 72.0 °F - 70.0 °F 93% 30.07 in 10.0 mi North 6.9 mph - N/A   Overcast
12:53 AM 72.0 °F - 70.0 °F 93% 30.04 in 9.0 mi North 8.1 mph - 0.00 in Rain Light Rain
1:10 AM 72.0 °F - 70.0 °F 93% 30.07 in 10.0 mi North 9.2 mph - 0.00 in   Overcast
1:53 AM 71.1 °F - 69.1 °F 93% 30.04 in 10.0 mi North 8.1 mph - 0.00 in   Overcast
2:53 AM 70.0 °F - 68.0 °F 93% 30.05 in 10.0 mi North 6.9 mph - N/A   Clear
3:53 AM 69.1 °F - 66.9 °F 93% 30.06 in 10.0 mi NNW 6.9 mph - N/A   Clear
4:53 AM 68.0 °F - 66.0 °F 93% 30.07 in 10.0 mi NNW 5.8 mph - N/A   Clear
5:53 AM 66.9 °F - 64.9 °F 93% 30.09 in 10.0 mi North 11.5 mph - N/A   Clear
6:53 AM 66.9 °F - 64.0 °F 90% 30.11 in 10.0 mi North 9.2 mph - N/A   Clear
7:53 AM 70.0 °F - 64.9 °F 84% 30.13 in 10.0 mi North 9.2 mph - N/A   Clear
8:53 AM 73.0 °F - 63.0 °F 71% 30.15 in 10.0 mi North 11.5 mph - N/A   Clear
9:53 AM 77.0 °F - 64.9 °F 66% 30.15 in 10.0 mi NNE 10.4 mph 19.6 mph N/A   Clear
10:53 AM 78.1 °F - 64.0 °F 62% 30.16 in 10.0 mi North 16.1 mph 21.9 mph N/A   Partly Cloudy
11:53 AM 80.1 °F 81.1 °F 61.0 °F 52% 30.17 in 10.0 mi North 17.3 mph 24.2 mph N/A   Partly Cloudy
12:53 PM 81.0 °F 81.1 °F 57.9 °F 45% 30.16 in 10.0 mi North 13.8 mph 25.3 mph N/A   Clear
1:53 PM 81.0 °F 80.7 °F 55.0 °F 41% 30.16 in 10.0 mi North 16.1 mph 23.0 mph N/A   Scattered Clouds
2:53 PM 82.0 °F - 36.0 °F 19% 30.15 in 10.0 mi North 15.0 mph 25.3 mph N/A   Clear
3:53 PM 82.0 °F 82.7 °F 61.0 °F 49% 30.15 in 10.0 mi North 18.4 mph 24.2 mph N/A   Clear
4:53 PM 81.0 °F 81.3 °F 59.0 °F 47% 30.15 in 10.0 mi North 15.0 mph - N/A   Partly Cloudy
5:53 PM 80.1 °F 80.6 °F 57.9 °F 47% 30.15 in 10.0 mi North 17.3 mph 24.2 mph N/A   Clear
6:53 PM 78.1 °F - 59.0 °F 52% 30.15 in 10.0 mi North 11.5 mph - N/A   Clear
7:53 PM 75.0 °F - 59.0 °F 57% 30.15 in 10.0 mi North 9.2 mph - N/A   Clear
8:53 PM 71.1 °F - 60.1 °F 68% 30.16 in 10.0 mi NNW 4.6 mph - N/A   Clear
9:53 PM 68.0 °F - 60.1 °F 76% 30.18 in 10.0 mi NNW 5.8 mph - N/A   Clear
10:53 PM 66.0 °F - 60.1 °F 81% 30.20 in 10.0 mi North 4.6 mph - N/A   Clear
11:53 PM 66.0 °F - 59.0 °F 78% 30.22 in 10.0 mi NNW 5.8 mph - N/A   Clear